| time (UTC) | temp F | wind direction | speed MPH | gust MPH | rain 1hr in | rain 24hr in | rain mn in | humidity % | barometer mb |
| 20260903071537 | 80 | 113 | 0.0 | 2.0 | 0.00 | 0.00 | 0.00 | 73 | 1010.6 |
| 20260903070034 | 81 | 113 | 0.0 | 4.0 | 0.00 | 0.00 | 0.00 | 72 | 1010.7 |
| 20260903064533 | 81 | 109 | 0.0 | 2.0 | 0.00 | 0.00 | 0.00 | 71 | 1010.9 |
| 20260903063032 | 82 | 119 | 1.0 | 5.0 | 0.00 | 0.00 | 0.00 | 70 | 1010.9 |
| 20260903061530 | 82 | 64 | 1.0 | 7.0 | 0.00 | 0.00 | 0.00 | 70 | 1011.0 |
| 20260903060025 | 83 | 111 | 0.0 | 5.0 | 0.00 | 0.00 | 0.00 | 68 | 1011.2 |
| 20260903054523 | 83 | 111 | 1.0 | 4.0 | 0.00 | 0.00 | 0.00 | 67 | 1011.2 |
| 20260903053019 | 83 | 132 | 0.0 | 4.0 | 0.00 | 0.00 | 0.00 | 66 | 1010.9 |
| 20260903051516 | 84 | 46 | 0.0 | 3.0 | 0.00 | 0.00 | 0.00 | 66 | 1011.1 |
| 20260903050014 | 84 | 112 | 0.0 | 6.0 | 0.00 | 0.00 | 0.00 | 65 | 1010.9 |
| 20260903044512 | 85 | 155 | 1.0 | 7.0 | 0.00 | 0.00 | 0.00 | 65 | 1010.8 |
| 20260903043012 | 85 | 98 | 1.0 | 5.0 | 0.00 | 0.00 | 0.00 | 63 | 1010.8 |
| 20260903041512 | 86 | 76 | 3.0 | 9.0 | 0.00 | 0.00 | 0.00 | 62 | 1010.9 |
| 20260903040011 | 86 | 162 | 0.0 | 5.0 | 0.00 | 0.00 | 0.00 | 62 | 1011.0 |
| 20260903034518 | 87 | 132 | 0.0 | 5.0 | 0.00 | 0.00 | 0.00 | 61 | 1011.0 |
| 20260903033010 | 88 | 69 | 1.0 | 7.0 | 0.00 | 0.00 | 0.00 | 59 | 1011.0 |
| 20260903031510 | 89 | 108 | 3.0 | 10.0 | 0.00 | 0.00 | 0.00 | 58 | 1010.7 |
| 20260903030009 | 89 | 78 | 1.0 | 8.0 | 0.00 | 0.00 | 0.00 | 57 | 1010.5 |
| 20260903024509 | 90 | 82 | 0.0 | 7.0 | 0.00 | 0.00 | 0.00 | 56 | 1010.3 |
| 20260903023008 | 90 | 130 | 1.0 | 7.0 | 0.00 | 0.00 | 0.00 | 55 | 1010.2 |
| 20260903021508 | 91 | 94 | 2.0 | 7.0 | 0.00 | 0.00 | 0.00 | 54 | 1010.0 |
| 20260903020018 | 91 | 76 | 0.0 | 4.0 | 0.00 | 0.00 | 0.00 | 53 | 1009.7 |
| 20260903014506 | 92 | 106 | 0.0 | 7.0 | 0.00 | 0.00 | 0.00 | 52 | 1009.6 |
| 20260903013009 | 92 | 79 | 1.0 | 7.0 | 0.00 | 0.00 | 0.00 | 51 | 1009.4 |
| 20260903011510 | 93 | 42 | 1.0 | 7.0 | 0.00 | 0.00 | 0.00 | 49 | 1009.2 |
| 20260903010007 | 94 | 148 | 1.0 | 9.0 | 0.00 | 0.00 | 0.00 | 48 | 1009.1 |
| 20260903004505 | 96 | 106 | 2.0 | 11.0 | 0.00 | 0.00 | 0.00 | 46 | 1009.0 |
| 20260903003005 | 98 | 147 | 1.0 | 7.0 | 0.00 | 0.00 | 0.00 | 43 | 1008.9 |
| 20260903001504 | 99 | 36 | 1.0 | 4.0 | 0.00 | 0.00 | 0.00 | 40 | 1008.9 |
| 20260903000004 | 98 | 115 | 1.0 | 10.0 | 0.00 | 0.00 | 0.00 | 41 | 1008.9 |
| 20260902234502 | 99 | 107 | 1.0 | 7.0 | 0.00 | 0.00 | 0.00 | 40 | 1008.9 |
| 20260902233007 | 100 | 26 | 3.0 | 10.0 | 0.00 | 0.00 | 0.00 | 40 | 1008.9 |
| 20260902231503 | 100 | 57 | 1.0 | 6.0 | 0.00 | 0.00 | 0.00 | 40 | 1008.9 |
| 20260902230001 | 100 | 87 | 1.0 | 7.0 | 0.00 | 0.00 | 0.00 | 39 | 1008.8 |
| 20260902224601 | 100 | 53 | 1.0 | 6.0 | 0.00 | 0.00 | 0.00 | 41 | 1009.0 |
| 20260902223120 | 100 | 136 | 1.0 | 9.0 | 0.00 | 0.00 | 0.00 | 39 | 1008.9 |
| 20260902221600 | 101 | 348 | 1.0 | 7.0 | 0.00 | 0.00 | 0.00 | 40 | 1009.1 |
| 20260902220101 | 100 | 317 | 1.0 | 5.0 | 0.00 | 0.00 | 0.00 | 42 | 1009.2 |
| 20260902214556 | 101 | 344 | 1.0 | 5.0 | 0.00 | 0.00 | 0.00 | 39 | 1009.4 |
| 20260902213053 | 99 | 69 | 3.0 | 8.0 | 0.00 | 0.00 | 0.00 | 39 | 1009.4 |
| 20260902211554 | 101 | 46 | 2.0 | 5.0 | 0.00 | 0.00 | 0.00 | 39 | 1009.7 |
| 20260902210048 | 100 | 111 | 0.0 | 4.0 | 0.00 | 0.00 | 0.00 | 42 | 1009.7 |